Location: Dalton
(34.7700°N, 84.9700°W)
Time: 13:54:08
(UTC-04:00)

Vanguard 3 - Visible Passes

Search period start: 18 July 2018 00:00
Search period end: 28 July 2018 00:00
Orbit: 508 x 3264 km, 33.3° (Epoch: 17 July)

Date Brightness Start Highest point End Pass type
(mag) Time Alt. Az. Time Alt. Az. Time Alt. Az.
18 Jul 8.0 21:35:51 10° W 21:46:56 82° S 21:52:57 10° E visible
18 Jul 7.8 23:52:00 10° W 23:57:39 45° WSW 23:57:39 45° WSW visible
19 Jul 7.6 22:35:50 10° W 22:45:15 75° S 22:47:53 35° ESE visible
20 Jul 9.6 00:51:33 10° W 00:52:28 13° W 00:52:28 13° W visible
20 Jul 8.3 21:18:54 10° W 21:31:04 83° S 21:37:36 10° E visible
20 Jul 7.7 23:35:34 10° W 23:42:41 49° SW 23:42:41 49° SW visible
21 Jul 7.9 22:19:04 10° W 22:29:27 72° SSW 22:32:54 29° ESE visible
22 Jul 9.4 00:35:27 10° W 00:37:28 16° WSW 00:37:28 16° WSW visible
22 Jul 8.5 21:01:54 10° W 21:15:07 83° S 21:22:12 10° E visible
22 Jul 7.9 23:19:01 10° W 23:27:22 46° SSW 23:27:41 46° SSW visible
23 Jul 8.2 22:02:12 10° W 22:13:34 69° SSW 22:17:54 23° ESE visible
24 Jul 9.4 00:19:18 10° W 00:22:28 18° WSW 00:22:28 18° WSW visible
24 Jul 8.1 23:02:21 10° W 23:11:27 43° SSW 23:12:40 39° S visible
25 Jul 8.5 21:45:14 10° W 21:57:35 66° SSW 22:02:53 19° ESE visible
26 Jul 9.4 00:03:03 10° W 00:07:27 19° WSW 00:07:27 19° WSW visible
26 Jul 8.5 22:45:36 10° W 22:55:24 40° SW 22:57:41 32° S visible
27 Jul 8.8 21:28:10 10° W 21:41:29 62° SSW 21:47:55 15° SE visible
27 Jul 9.5 23:46:47 10° W 23:52:26 18° SW 23:52:29 18° SW visible
